SQC7327 KLAX-EHAM

Flight info

Callsign SQC7327
Flight time N/A
Altitude 29000
Route DOTSS2 CLEEE DCT EED J236 TBC DCT ALS DCT HLC DCT DSM/N0500F310 DCT MSN DCT TVC DCT YUY DCT NOWAA DCT BROME DCT DORYY/M086F340 DCT 58N050W 59N040W 59N030W 58N020W DCT SUNOT DCT KESIX/N0489F350 DCT AMLAD DCT EMGAT DCT ERKIT N110 DOLAS L603 LAMSO
Aircraft B744/H-SDE3FGHIM1M2RWXY/LB1

Departure

Time N/A
Airport Los Angeles International Airport (KLAX)

Arrival

Time 2026-04-30 14:25
Airport Amsterdam Airport Schiphol (EHAM)
Time Latitude Longitude Altitude Speed Heading
2026-04-30 14:02 52.83421 2.21021 35247 ft 472 kts 103°
2026-04-30 14:03 52.82742 2.26333 34738 ft 470 kts 103°
2026-04-30 14:03 52.82063 2.31621 33824 ft 471 kts 103°
2026-04-30 14:03 52.81381 2.36924 33021 ft 470 kts 103°
2026-04-30 14:03 52.80704 2.42188 32195 ft 468 kts 103°
2026-04-30 14:04 52.80071 2.47115 31402 ft 468 kts 103°
2026-04-30 14:04 52.79400 2.52364 30527 ft 467 kts 102°
2026-04-30 14:04 52.78735 2.57626 29631 ft 467 kts 103°
2026-04-30 14:04 52.78053 2.62875 28696 ft 468 kts 103°
2026-04-30 14:05 52.77351 2.68223 27793 ft 483 kts 103°
2026-04-30 14:05 52.76599 2.73677 27129 ft 489 kts 104°
2026-04-30 14:05 52.75717 2.79072 26862 ft 485 kts 106°
2026-04-30 14:05 52.74759 2.84388 26651 ft 479 kts 107°
2026-04-30 14:06 52.73764 2.89605 26381 ft 476 kts 108°
2026-04-30 14:06 52.71745 2.99952 25286 ft 469 kts 108°
2026-04-30 14:07 52.69764 3.10099 23712 ft 460 kts 108°
2026-04-30 14:07 52.68789 3.15080 22973 ft 454 kts 108°
2026-04-30 14:07 52.68146 3.18358 22485 ft 451 kts 108°
2026-04-30 14:08 52.66238 3.28058 21036 ft 440 kts 108°
2026-04-30 14:08 52.65297 3.32829 20314 ft 435 kts 108°
2026-04-30 14:08 52.63438 3.42212 18873 ft 426 kts 108°
2026-04-30 14:09 52.62525 3.46832 18179 ft 422 kts 108°
2026-04-30 14:09 52.61661 3.51427 17662 ft 420 kts 107°
2026-04-30 14:09 52.59886 3.60474 17274 ft 403 kts 108°
2026-04-30 14:10 52.59023 3.64766 17190 ft 387 kts 108°
2026-04-30 14:10 52.58193 3.68876 17112 ft 372 kts 108°
2026-04-30 14:10 52.57391 3.72837 17018 ft 355 kts 108°
2026-04-30 14:10 52.56632 3.76576 16908 ft 335 kts 108°
2026-04-30 14:11 52.55918 3.80094 16780 ft 315 kts 108°
2026-04-30 14:11 52.55239 3.83443 16407 ft 305 kts 108°
2026-04-30 14:11 52.54563 3.86776 15429 ft 314 kts 108°
2026-04-30 14:11 52.53859 3.90247 14443 ft 323 kts 108°
2026-04-30 14:12 52.53161 3.93709 13692 ft 323 kts 108°
2026-04-30 14:12 52.52443 3.97241 12749 ft 329 kts 109°
2026-04-30 14:12 52.51642 4.00756 11845 ft 331 kts 111°
2026-04-30 14:12 52.50761 4.04321 10659 ft 341 kts 112°
2026-04-30 14:13 52.49860 4.07897 10044 ft 334 kts 112°
2026-04-30 14:13 52.49009 4.11290 10001 ft 309 kts 112°
2026-04-30 14:13 52.48229 4.14420 9985 ft 285 kts 112°
2026-04-30 14:13 52.47506 4.17327 9823 ft 268 kts 112°
2026-04-30 14:14 52.46812 4.20124 9351 ft 261 kts 112°
2026-04-30 14:14 52.46134 4.22854 8727 ft 258 kts 113°
2026-04-30 14:14 52.45462 4.25578 8036 ft 256 kts 112°
2026-04-30 14:14 52.44832 4.28279 7347 ft 252 kts 112°
2026-04-30 14:15 52.44208 4.30935 6647 ft 248 kts 112°
2026-04-30 14:15 52.43583 4.33542 5942 ft 244 kts 112°
2026-04-30 14:15 52.42941 4.36097 5237 ft 241 kts 117°
2026-04-30 14:15 52.41839 4.38094 4509 ft 240 kts 146°
2026-04-30 14:16 52.40246 4.38975 3789 ft 244 kts 165°
2026-04-30 14:16 52.38587 4.39280 3337 ft 234 kts 169°
2026-04-30 14:16 52.36989 4.39433 2894 ft 227 kts 171°
2026-04-30 14:16 52.35427 4.39545 2454 ft 222 kts 171°
2026-04-30 14:17 52.33913 4.39654 2190 ft 213 kts 171°
2026-04-30 14:17 52.32407 4.39770 2091 ft 219 kts 171°
2026-04-30 14:17 52.30871 4.39897 2028 ft 223 kts 171°
2026-04-30 14:17 52.29311 4.40029 1983 ft 224 kts 171°
2026-04-30 14:18 52.27756 4.40166 1982 ft 224 kts 171°
2026-04-30 14:18 52.26202 4.40300 2038 ft 224 kts 171°
2026-04-30 14:18 52.23105 4.40561 1983 ft 224 kts 171°
2026-04-30 14:19 52.20135 4.41039 1958 ft 206 kts 153°
2026-04-30 14:19 52.19104 4.42524 1975 ft 198 kts 119°
2026-04-30 14:19 52.18776 4.44667 1988 ft 195 kts 97°
2026-04-30 14:20 52.18746 4.46857 1980 ft 192 kts 90°
2026-04-30 14:20 52.19116 4.48944 1982 ft 196 kts 69°
2026-04-30 14:20 52.20668 4.52639 1994 ft 202 kts 59°
2026-04-30 14:21 52.21479 4.54505 1976 ft 201 kts 61°
2026-04-30 14:21 52.22245 4.56409 1986 ft 199 kts 62°
2026-04-30 14:21 52.23512 4.59696 1965 ft 140 kts 64°
2026-04-30 14:22 52.24036 4.61057 1808 ft 141 kts 64°
2026-04-30 14:22 52.25056 4.63708 1404 ft 139 kts 64°
2026-04-30 14:22 52.25574 4.65054 1216 ft 136 kts 63°
2026-04-30 14:23 52.26583 4.67674 858 ft 138 kts 63°
2026-04-30 14:23 52.27593 4.70298 473 ft 137 kts 63°
2026-04-30 14:24 52.28588 4.72882 124 ft 132 kts 63°
2026-04-30 14:24 52.29080 4.74156 13 ft 133 kts 62°
2026-04-30 14:25 52.29982 4.76523 3 ft 89 kts 57°
2026-04-30 14:25 52.30326 4.77423 2 ft 17 kts 83°
2026-04-30 14:26 52.30176 4.77496 2 ft 13 kts 220°
2026-04-30 14:26 52.30118 4.77391 2 ft 12 kts 242°
2026-04-30 14:26 52.30031 4.77163 2 ft 11 kts 238°
2026-04-30 14:27 52.29978 4.77025 2 ft 24 kts 238°
2026-04-30 14:27 52.29869 4.76829 2 ft 22 kts 229°
2026-04-30 14:27 52.29795 4.76659 2 ft 16 kts 241°
2026-04-30 14:28 52.29677 4.76447 2 ft 11 kts 173°
2026-04-30 14:28 52.29648 4.76477 2 ft 1 kts 143°
2026-04-30 14:28 52.29631 4.76491 2 ft 3 kts 154°
2026-04-30 14:28 52.29622 4.76497 2 ft 0 kts 154°